Weather History for Shelbyville, IN

Change the Weather History Date:

Wednesday, February 12, 2014

  Actual Average Record
Temperature  
Mean Temperature 12 °F 31 °F  
Max Temperature 29 °F 39 °F 52 °F (2005)
Min Temperature -6 °F 23 °F -6 °F (2014)
Degree Days  
Heating Degree Days 53 34  
Month to date heating degree days 561 421  
Since 1 July heating degree days 3927 3650  
Cooling Degree Days 0 0  
Month to date cooling degree days 0 0  
Year to date cooling degree days 0 0  
Moisture  
Dew Point 2 °F    
Average Humidity 63    
Maximum Humidity 79    
Minimum Humidity 46    
Precipitation  
Precipitation 0.00 in 0.10 in 0.22 in (2008)
Month to date precipitation 0.85 1.03  
Year to date precipitation 2.88 3.42  
Sea Level Pressure  
Sea Level Pressure 30.24 in    
Wind  
Wind Speed 6 mph (ENE)    
Max Wind Speed 13 mph    
Max Gust Speed 13 mph    
Visibility 10 miles    
Events      
T = Trace of Precipitation, MM = Missing Value Source: NWS Daily Summary

Daily Weather History Graph

Daily Weather History Graph

Search for Another Location

Airport:

Trip Planner

Search our weather history database for the weather conditions in past years. The results will help you decide how hot, cold, wet, or windy it might be!

Date:

Astronomy

Feb. 12, 2014 Rise Set
Actual Time 7:39 AM EST 6:16 PM EST
Civil Twilight 7:11 AM EST 6:44 PM EST
Nautical Twilight 6:39 AM EST 7:15 PM EST
Astronomical Twilight 6:08 AM EST 7:47 PM EST
Moon 4:29 PM EST (2/12) 5:55 AM EST (2/12)
Length of Visible Light 11h 32m
Length of Day
10h 37m
Waxing Gibbous, 95% of the Moon is Illuminated
Feb 12
Waxing Gibbous
Feb 14
Full
Feb 22
Last Quarter
Mar 1
New
Mar 8
First Quarter

Hourly Weather History & Observations

Time (EST) Temp. Windchill Dew Point Humidity Pressure Visibility Wind Dir Wind Speed Gust Speed Precip Events Conditions
12:53 AM -2.9 °F -15.0 °F -9.9 °F 72% 30.44 in 9.0 mi East 5.8 mph - N/A   Clear
1:53 AM -4.0 °F -19.0 °F -9.0 °F 79% 30.42 in 8.0 mi East 8.1 mph - N/A   Clear
2:53 AM -4.0 °F -17.8 °F -9.9 °F 76% 30.40 in 8.0 mi East 6.9 mph - N/A   Clear
3:53 AM -2.0 °F -13.9 °F -8.0 °F 76% 30.38 in 8.0 mi East 5.8 mph - N/A   Clear
4:53 AM -0.0 °F -18.0 °F -6.0 °F 76% 30.35 in 10.0 mi East 12.7 mph - N/A   Clear
5:53 AM -0.0 °F -17.1 °F -7.1 °F 72% 30.35 in 10.0 mi ENE 11.5 mph - N/A   Clear
6:53 AM -4.0 °F -16.3 °F -9.9 °F 76% 30.34 in 9.0 mi East 5.8 mph - N/A   Clear
7:53 AM -4.0 °F -17.8 °F -9.9 °F 76% 30.33 in 8.0 mi East 6.9 mph - N/A   Clear
8:53 AM 1.9 °F -7.6 °F -5.1 °F 72% 30.33 in 9.0 mi ENE 4.6 mph - N/A   Clear
9:53 AM 9.0 °F 2.4 °F -0.0 °F 67% 30.32 in 10.0 mi NE 3.5 mph - N/A   Clear
10:53 AM 16.0 °F 5.3 °F 3.9 °F 59% 30.31 in 10.0 mi East 8.1 mph - N/A   Clear
11:53 AM 19.9 °F 11.1 °F 6.1 °F 55% 30.27 in 10.0 mi East 6.9 mph - N/A   Clear
12:53 PM 24.1 °F 17.0 °F 9.0 °F 53% 30.22 in 10.0 mi NE 5.8 mph - N/A   Clear
1:53 PM 27.0 °F 20.5 °F 10.9 °F 51% 30.18 in 10.0 mi East 5.8 mph - N/A   Clear
2:53 PM 28.0 °F 22.8 °F 12.0 °F 51% 30.15 in 10.0 mi North 4.6 mph - N/A   Clear
3:53 PM 28.9 °F 21.9 °F 12.0 °F 49% 30.12 in 10.0 mi NNE 6.9 mph - N/A   Clear
4:53 PM 28.0 °F 21.7 °F 10.9 °F 49% 30.10 in 10.0 mi NE 5.8 mph - N/A   Clear
5:53 PM 26.1 °F 21.9 °F 9.0 °F 49% 30.11 in 10.0 mi NNE 3.5 mph - N/A   Clear
6:53 PM 23.0 °F 15.8 °F 8.1 °F 53% 30.11 in 10.0 mi NE 5.8 mph - N/A   Clear
7:53 PM 18.0 °F 12.7 °F 7.0 °F 62% 30.12 in 10.0 mi NE 3.5 mph - N/A   Clear
8:53 PM 21.9 °F 14.5 °F 6.1 °F 51% 30.10 in 10.0 mi NE 5.8 mph - N/A   Clear
9:53 PM 19.9 °F 12.1 °F 7.0 °F 57% 30.09 in 10.0 mi NNE 5.8 mph - N/A   Clear
10:53 PM 15.1 °F 5.2 °F 5.0 °F 64% 30.08 in 10.0 mi ENE 6.9 mph - N/A   Clear
11:53 PM 14.0 °F 5.1 °F 3.9 °F 64% 30.05 in 10.0 mi ENE 5.8 mph - N/A   Clear